Location: ?????? ??????
(44.3742°N, 135.2221°E)
Time: 09:20:54
(UTC+00:00)

Cosmos 1437 Rocket - Pass Details

Date: 19 May 2025
Orbit: 456 x 500 km, 81.2° (Epoch: 12 June)

Event Time Altitude Azimuth Distance (km) Brightness Sun altitude
Exits shadow 16:09:33 40° 75° (ENE) 701 3.5 -23.5°
Drops below altitude 10° 16:12:28 10° 24° (NNE) 1,614 6.3 -23.3°
Sets 16:14:37 0° 18° (NNE) 2,490 7.6 -23.2°
